Location: Brompton
(51.4000°N, 0.5333°E)
Time: 16:52:06
(UTC+00:00)

Cosmos 2082 Rocket - Pass Details

Date: 11 May 2021
Orbit: 834 x 853 km, 71.0° (Epoch: 24 June)

Event Time Altitude Azimuth Distance (km) Brightness Sun altitude
Rises 21:34:38 0° 329° (NNW) 3,393 7.3 -14.1°
Reaches altitude 10° 21:37:05 10° 328° (NNW) 2,456 6.1 -14.3°
Maximum altitude 21:42:43 77° 243° (WSW) 861 2.2 -14.8°
Enters shadow 21:46:24 22° 160° (SSE) 1,739 3.2 -15.1°
